Location: Sungai Dangang
(2.7500°N, 113.8333°E)
Time: 04:38:10
(UTC+00:00)

Cosmos 1812 Rocket - Pass Details

Date: 16 May 2021
Orbit: 604 x 633 km, 82.5° (Epoch: 16 June)

Event Time Altitude Azimuth Distance (km) Brightness Sun altitude
Rises 21:11:43 0° 354° (N) 2,848 7.2 -15.4°
Reaches altitude 10° 21:13:55 10° 353° (N) 1,944 6.3 -14.9°
Maximum altitude 21:18:12 80° 268° (W) 616 3.4 -13.9°
Drops below altitude 10° 21:22:31 10° 179° (S) 1,948 5.9 -12.9°
Sets 21:24:44 0° 178° (S) 2,854 6.8 -12.3°
